(706) 295-7835

For Pilots

METAR

KRMG 180053Z AUTO 00000KT 10SM OVC090 25/21 A2997 RMK AO2 SLP138 T02500211

Location & Communications

Get detailed information about the airport, provided by AirNav.

Pilot Services

We have fuel services, on-site repair and maintenance, 24-hour security and more.

Fuel Points

Russell Regional Airport is a Shell Aviation merchant and is proud to participate in the Shell Aero Class Rewards program!

Hangar Availability

RMG offers 66 various sized T-Hangars for tenants and visitors (upon availability). Below, you will find the sizes of the hangars offered at RMG. If […]

Today's Fuel Prices

Jet A $6.92 / gallon
AvGas (100LL) $6.89 / gallon
Self Serve AvGas $6.49 / gallon
Learn about fuel points program